Regional Weather Roundup
Issued by NWS

Home | Current Version | Previous Version | Graphics & Text | Print | Product List | Glossary On
Versions: 1 2 3 4 5 6 7 8 9 10 11 12 13 14 15 16 17 18 19 20 21 22 23 24 25 26 27 28 29 30 31 32 33 34 35 36 37 38 39 40 41 42 43 44 45 46 47 48 49 50
289
ASUS43 KOAX 270210
RWRNE

WEATHER ROUNDUP FOR NEBRASKA
NATIONAL WEATHER SERVICE OMAHA NE
900 PM CDT THU APR 26 2018

NOTES: SATELLITE DATA IS BEING USED TO AUGMENT CLOUD COVER ABOVE
       12000 FEET.
       "FAIR" INDICATES FEW OR NO CLOUDS BELOW 12,000 FEET WITH NO
       SIGNIFICANT WEATHER AND/OR OBSTRUCTIONS TO VISIBILITY.


NEZ001>004-019>022-054>056-270300-
NEBRASKA PANHANDLE

CITY           SKY/WX    TMP DP  RH WIND       PRES   REMARKS
SCOTTSBLUFF    CLEAR     56  30  37 N3        30.16S
ALLIANCE       CLEAR     52  31  44 NW6       30.15S
CHADRON        CLEAR     55  30  38 NW8       30.13S
GORDON         FAIR      53  32  46 CALM      30.13S
KIMBALL        CLEAR     49  27  41 CALM      30.21S
SIDNEY         CLEAR     46  28  49 NW5       30.19S
$$

NEZ057>060-069>072-079>082-270300-
SOUTHWEST NEBRASKA

CITY           SKY/WX    TMP DP  RH WIND       PRES   REMARKS
NORTH PLATTE   CLEAR     50  27  40 NE8       30.14R
IMPERIAL       CLEAR     50  26  39 NW5       30.17R
LEXINGTON      CLEAR     50  28  42 N6        30.13S
MCCOOK         CLEAR     50  30  46 N8        30.15R
OGALLALA       CLEAR     50  32  49 NW7       30.16S
$$

NEZ005>010-023>029-035>040-094-270300-
NORTH CENTRAL NEBRASKA

CITY           SKY/WX    TMP DP  RH WIND       PRES   REMARKS
VALENTINE      CLEAR     56  29  35 NW6       30.11R
AINSWORTH      CLEAR     54  30  40 NW5       30.10S
BROKEN BOW     CLEAR     47  28  47 NW5       30.12R
O`NEILL        CLEAR     54  28  36 N5        30.09S
ORD            CLEAR     47  29  49 W5        30.09S
THEDFORD       CLEAR     53  28  37 CALM      30.14S
$$

NEZ041-046>049-061>064-073>077-083>087-270300-
SOUTH CENTRAL NEBRASKA

CITY           SKY/WX    TMP DP  RH WIND       PRES   REMARKS
GRAND ISLAND   CLEAR     50  29  44 N6        30.11R
AURORA         CLEAR     49  29  46 N7        30.09S
HASTINGS       CLEAR     49  30  48 N8        30.11R
HEBRON         CLEAR     57  29  34 N5        30.08R
HOLDREGE       CLEAR     49  31  49 N5        30.13R
KEARNEY        CLEAR     52  28  39 N5        30.12R
YORK             N/A     50  28  43 N7        30.09R
$$

NEZ011>018-030>034-042>045-270300-
NORTHEAST NEBRASKA

CITY           SKY/WX    TMP DP  RH WIND       PRES   REMARKS
NORFOLK        CLEAR     50  30  46 N7        30.05R
ALBION         CLEAR     51  32  47 CALM      30.09R
BLAIR          CLEAR     55  29  37 NW12      30.04R
COLUMBUS       CLEAR     52  28  39 N6        30.09R
FREMONT        CLEAR     56  28  34 N6        30.06R
TEKAMAH        CLEAR     51  27  39 N10       30.04R
WAYNE          CLEAR     49  30  46 N7        30.06R
$$

NEZ050>053-065>068-078-088>093-270300-
SOUTHEAST NEBRASKA

CITY           SKY/WX    TMP DP  RH WIND       PRES   REMARKS
LINCOLN        CLEAR     55  28  35 N9        30.07R
OMAHA EPPLEY   CLEAR     56  28  34 N14       30.03R
BEATRICE       CLEAR     54  32  42 N10       30.05R
FALLS CITY     CLEAR     61  33  35 N14G22    29.98R
NEBRASKA CITY  CLEAR     58  30  33 N13       30.01R
PLATTSMOUTH    CLEAR     57  27  31 N7        30.03R
$$

NEZ044-045-051>053-067-270300-
OMAHA AREA

CITY           SKY/WX    TMP DP  RH WIND       PRES   REMARKS
OMAHA EPPLEY   CLEAR     56  28  34 N14       30.03R
BLAIR          CLEAR     55  29  37 NW12      30.04R
FREMONT        CLEAR     56  28  34 N6        30.06R
MILLARD        CLEAR     60  31  33 NW10G16   30.04R
OFFUTT AFB     CLEAR     58  26  30 N9        30.02R
PLATTSMOUTH    CLEAR     57  27  31 N7        30.03R
WAHOO          FAIR      53  24  33 N8        30.06R
$$




USA.gov is the U.S. government's official web portal to all federal, state and local government web resources and services.